Flag for Germany Weather past 2 weeks in Wegberg, North Rhine-Westphalia, Germany

Now
81 °F

Passing clouds.


Feels Like: 81 °F
Forecast: 65 / 79 °F
Wind: 5 mph from North

Location: Monchengladbach Airport

Current Time: Aug 1, 2014 at 5:39:54 PM

Latest Report: Aug 1, 2014 at 5:20 PM


Visibility: N/A

Pressure: 29.80 "Hg

Humidity: 45%

Dew point: 57 °F

Location of WegbergLocation

Historic Weather in Wegberg — Graph

°F

Wegberg temperature yesterday

Maximum temperature yesterday: 79 °F (at 4:20 PM)
Minimum temperature yesterday: 59 °F (at 7:50 AM)
Average temperature yesterday: 72 °F

Past Weeks' High & Low Weather Summary

 TemperatureHumidityPressure
High91 °F (Jul 19, 4:50 PM)100% (Jul 20, 8:20 AM)30.12 "Hg (Jul 20, 8:20 AM)
Low59 °F (Jul 31, 7:50 AM)29% (Jul 19, 12:50 PM)29.77 "Hg (Jul 20, 8:20 AM)
Average74 °F67%29.92 "Hg
* Reported Jul 17 4:20 PM — Aug 1 4:20 PM, Wegberg, Weather by CustomWeather, © 2014

Note: Actual official high and low records may vary slightly from our data, if they occured in-between our weather recording intervals... More about our weather records

Advertising

Wegberg weather history for previous 24 hours

 ConditionsComfort  
Time TempWeatherWind HumidityBarometerVisibility
4:20 PM
Aug 1
81 °FClear.3 mph45%29.80 "Hg10 mi
3:50 PM81 °FClear.5 mph48%29.83 "Hg10 mi
3:20 PM79 °FPassing clouds.5 mph51%29.83 "HgN/A
2:50 PM81 °FClear.5 mph48%29.83 "Hg10 mi
2:20 PM79 °FClear.5 mph51%29.83 "Hg10 mi
1:50 PM79 °FClear.5 mph51%29.83 "Hg10 mi
1:20 PM79 °FSunny.3 mph48%29.83 "Hg10 mi
12:50 PM77 °FSunny.3 mph54%29.83 "Hg10 mi
12:20 PM77 °FPassing clouds.5 mph54%29.86 "HgN/A
11:50 AM77 °FSunny.3 mph54%29.86 "Hg10 mi
11:20 AM75 °FSunny.3 mph61%29.86 "Hg10 mi
10:50 AM73 °FSunny.3 mph65%29.86 "Hg10 mi
10:20 AM72 °FSunny.2 mph65%29.86 "Hg10 mi
9:50 AM70 °FSunny.3 mph73%29.86 "Hg10 mi
9:20 AM68 °FSunny.3 mph78%29.86 "Hg10 mi
8:50 AM64 °FSunny.3 mph83%29.86 "Hg10 mi
8:20 AM63 °FSunny.3 mph83%29.86 "Hg10 mi
7:50 AM61 °FSunny.2 mph94%29.86 "Hg10 mi
7:50 PM
Jul 31
77 °FClear.2 mph47%29.92 "Hg10 mi
7:20 PM79 °FClear.2 mph39%29.92 "Hg10 mi
6:50 PM77 °FPassing clouds.5 mph42%29.92 "HgN/A
6:20 PM79 °FClear.2 mph37%29.92 "Hg10 mi
5:50 PM79 °FClear.2 mph42%29.92 "Hg10 mi
5:20 PM79 °FClear.3 mph37%29.95 "Hg10 mi
Weather by CustomWeather, © 2014

See weather overviewHow to use our weather pages